Location: Enborne
(51.3833°N, 1.3667°W)
Time: 12:51:29
(UTC+00:00)

ARIANE 5 R/B - Pass Details

Date: 18 September 2020
Orbit: 620 x 657 km, 98.2° (Epoch: 09 October)

Event Time Altitude Azimuth Distance (km) Brightness Sun altitude
Exits shadow 19:37:43 18° 82° (E) 1,523 4.0 -13.9°
Maximum altitude 19:38:54 21° 60° (ENE) 1,432 4.1 -14.1°
Drops below altitude 10° 19:42:07 10° 12° (NNE) 2,003 5.3 -14.5°
Sets 19:44:44 0° 356° (N) 2,913 6.4 -14.9°
